Weather History for Pittsfield, IL

Change the Weather History Date:

Friday, September 13, 2013

  Actual Average (KUIN) Record (KUIN)
Temperature  
Mean Temperature 62 °F 68 °F  
Max Temperature 72 °F 78 °F 100 °F (1927)
Min Temperature 52 °F 57 °F 33 °F (1902)
Degree Days  
Heating Degree Days 3 2  
Month to date heating degree days 14  
Since 1 July heating degree days 19  
Cooling Degree Days 0 4  
Month to date cooling degree days 76  
Year to date cooling degree days 1029  
Growing Degree Days 12 (Base 50)    
Moisture  
Dew Point 49 °F    
Average Humidity 66    
Maximum Humidity 88    
Minimum Humidity 31    
Precipitation  
Precipitation 0.00 in 0.11 in 4.12 in (1961)
Month to date precipitation 1.43  
Year to date precipitation 27.18  
Sea Level Pressure  
Sea Level Pressure 30.14 in    
Wind  
Wind Speed 6 mph (North)    
Max Wind Speed 12 mph    
Max Gust Speed -    
Visibility 10 miles    
Events      
T = Trace of Precipitation, MM = Missing Value Source: NWS Daily Summary

Daily Weather History Graph

Daily Weather History Graph

Search for Another Location

Airport:

Trip Planner

Search our weather history database for the weather conditions in past years. The results will help you decide how hot, cold, wet, or windy it might be!

Date:

Astronomy

Sep. 13, 2013 Rise Set
Actual Time 6:42 AM CDT 7:14 PM CDT
Civil Twilight 6:15 AM CDT 7:41 PM CDT
Nautical Twilight 5:43 AM CDT 8:13 PM CDT
Astronomical Twilight 5:10 AM CDT 8:46 PM CDT
Moon 3:03 PM CDT (9/13) 12:13 AM CDT (9/13)
Length of Visible Light 13h 26m
Length of Day
12h 31m
First Quarter, 61% of the Moon is Illuminated
Sep 13
First Quarter
Sep 19
Full
Sep 26
Last Quarter
Oct 4
New
Oct 11
First Quarter

Hourly Weather History & Observations

Time (CDT) Temp. Dew Point Humidity Pressure Visibility Wind Dir Wind Speed Gust Speed Precip Events Conditions
12:15 AM 61.3 °F 50.4 °F 67% 30.12 in 10.0 mi NNW 5.8 mph - N/A   Clear
12:35 AM 61.7 °F 50.0 °F 65% 30.12 in 10.0 mi NNW 5.8 mph - N/A   Clear
1:15 AM 60.6 °F 50.4 °F 69% 30.12 in 10.0 mi NNW 4.6 mph - N/A   Clear
1:35 AM 59.9 °F 50.7 °F 72% 30.12 in 10.0 mi NNW 4.6 mph - N/A   Clear
1:55 AM 59.4 °F 50.9 °F 74% 30.13 in 10.0 mi NNW 3.5 mph - N/A   Clear
2:15 AM 59.0 °F 50.9 °F 74% 30.13 in 10.0 mi NNW 3.5 mph - N/A   Clear
2:35 AM 58.3 °F 50.9 °F 76% 30.13 in 10.0 mi NW 4.6 mph - N/A   Clear
2:55 AM 57.9 °F 50.9 °F 77% 30.13 in 10.0 mi NW 4.6 mph - N/A   Clear
3:15 AM 57.9 °F 50.9 °F 77% 30.13 in 10.0 mi NW 4.6 mph - N/A   Clear
3:35 AM 57.7 °F 50.9 °F 78% 30.13 in 10.0 mi Calm Calm - N/A   Clear
3:55 AM 57.4 °F 50.9 °F 79% 30.13 in 10.0 mi NNW 3.5 mph - N/A   Clear
4:15 AM 57.2 °F 50.4 °F 78% 30.13 in 10.0 mi North 4.6 mph - N/A   Clear
4:35 AM 57.7 °F 50.4 °F 76% 30.13 in 10.0 mi North 5.8 mph - N/A   Clear
4:55 AM 57.2 °F 50.4 °F 78% 30.13 in 10.0 mi North 6.9 mph - N/A   Clear
5:15 AM 56.8 °F 50.2 °F 78% 30.14 in 10.0 mi North 6.9 mph - N/A   Clear
5:35 AM 56.3 °F 50.2 °F 80% 30.14 in 10.0 mi North 6.9 mph - N/A   Clear
5:55 AM 56.5 °F 50.0 °F 79% 30.14 in 10.0 mi North 6.9 mph - N/A   Clear
6:15 AM 55.9 °F 50.0 °F 80% 30.14 in 10.0 mi North 6.9 mph - N/A   Clear
6:35 AM 55.6 °F 50.0 °F 81% 30.15 in 10.0 mi North 6.9 mph - N/A   Clear
6:55 AM 55.0 °F 50.0 °F 83% 30.16 in 10.0 mi North 4.6 mph - N/A   Clear
7:15 AM 55.6 °F 50.2 °F 82% 30.16 in 10.0 mi North 5.8 mph - N/A   Clear
7:35 AM 56.3 °F 50.7 °F 82% 30.16 in 10.0 mi North 5.8 mph - N/A   Clear
7:55 AM 57.2 °F 51.1 °F 80% 30.17 in 10.0 mi NNE 4.6 mph - N/A   Clear
8:15 AM 58.1 °F 51.8 °F 80% 30.17 in 10.0 mi NNE 6.9 mph - N/A   Clear
8:35 AM 59.0 °F 52.9 °F 80% 30.17 in 10.0 mi NNE 6.9 mph - N/A   Clear
8:55 AM 60.3 °F 53.6 °F 79% 30.18 in 10.0 mi NE 8.1 mph - N/A   Clear
9:15 AM 61.3 °F 54.3 °F 78% 30.18 in 10.0 mi ENE 9.2 mph - N/A   Clear
9:55 AM 63.0 °F 54.7 °F 74% 30.19 in 10.0 mi NE 11.5 mph - N/A   Clear
10:15 AM 64.6 °F 55.4 °F 72% 30.19 in 10.0 mi NNE 10.4 mph - N/A   Clear
10:55 AM 66.4 °F 55.6 °F 68% 30.20 in 10.0 mi NNE 9.2 mph - N/A   Mostly Cloudy
11:15 AM 65.7 °F 54.3 °F 67% 30.20 in 10.0 mi NNE 8.1 mph - N/A   Mostly Cloudy
11:35 AM 66.6 °F 54.7 °F 66% 30.19 in 10.0 mi North 5.8 mph - N/A   Mostly Cloudy
11:55 AM 67.3 °F 54.3 °F 63% 30.18 in 10.0 mi North 5.8 mph - N/A   Scattered Clouds
12:15 PM 66.2 °F 53.8 °F 64% 30.18 in 10.0 mi NE 4.6 mph - N/A   Scattered Clouds
12:55 PM 68.9 °F 52.3 °F 55% 30.17 in 10.0 mi NNW 5.8 mph - N/A   Mostly Cloudy
1:15 PM 69.3 °F 52.3 °F 55% 30.16 in 10.0 mi NNE 4.6 mph - N/A   Mostly Cloudy
1:55 PM 70.7 °F 49.8 °F 48% 30.15 in 10.0 mi NNE 8.1 mph - N/A   Scattered Clouds
2:15 PM 71.2 °F 48.9 °F 45% 30.14 in 10.0 mi NNE 8.1 mph - N/A   Clear
2:35 PM 71.4 °F 46.8 °F 41% 30.13 in 10.0 mi North 9.2 mph - N/A   Clear
2:55 PM 72.0 °F 46.2 °F 40% 30.13 in 10.0 mi North 11.5 mph - N/A   Clear
3:15 PM 72.3 °F 41.7 °F 33% 30.13 in 10.0 mi North 9.2 mph - N/A   Clear
3:35 PM 72.0 °F 40.8 °F 32% 30.13 in 10.0 mi NE 8.1 mph - N/A   Clear
3:55 PM 72.0 °F 41.9 °F 34% 30.12 in 10.0 mi North 9.2 mph - N/A   Clear
4:15 PM 72.0 °F 40.5 °F 32% 30.12 in 10.0 mi NNE 8.1 mph - N/A   Clear
4:35 PM 71.8 °F 39.7 °F 31% 30.12 in 10.0 mi NNE 9.2 mph - N/A   Clear
4:55 PM 71.2 °F 41.2 °F 34% 30.12 in 10.0 mi NE 10.4 mph - N/A   Clear
5:15 PM 70.7 °F 40.3 °F 33% 30.12 in 10.0 mi NE 6.9 mph - N/A   Clear
5:35 PM 70.2 °F 41.0 °F 35% 30.12 in 10.0 mi NE 9.2 mph - N/A   Clear
5:55 PM 69.4 °F 41.4 °F 36% 30.12 in 10.0 mi NE 8.1 mph - N/A   Clear
6:15 PM 68.5 °F 43.9 °F 41% 30.12 in 10.0 mi NE 6.9 mph - N/A   Clear
6:35 PM 67.3 °F 44.4 °F 44% 30.12 in 10.0 mi NE 5.8 mph - N/A   Clear
6:55 PM 65.7 °F 44.2 °F 46% 30.12 in 5.0 mi NNE 3.5 mph - N/A   Haze
7:15 PM 64.2 °F 44.6 °F 49% 30.12 in 10.0 mi NNE 3.5 mph - N/A   Clear
7:55 PM 61.3 °F 46.4 °F 58% 30.12 in 10.0 mi North 4.6 mph - N/A   Clear
8:15 PM 60.3 °F 46.9 °F 61% 30.12 in 10.0 mi North 3.5 mph - N/A   Clear
8:55 PM 57.2 °F 49.5 °F 75% 30.13 in 10.0 mi Calm Calm - N/A   Clear
9:15 PM 56.8 °F 50.0 °F 78% 30.13 in 10.0 mi NNW 3.5 mph - N/A   Clear
9:35 PM 55.4 °F 49.6 °F 81% 30.13 in 10.0 mi Calm Calm - N/A   Clear
9:55 PM 55.4 °F 49.3 °F 80% 30.13 in 10.0 mi Calm Calm - N/A   Clear
10:15 PM 53.6 °F 49.6 °F 86% 30.13 in 10.0 mi Calm Calm - N/A   Clear
10:35 PM 53.8 °F 49.6 °F 86% 30.14 in 10.0 mi Calm Calm - N/A   Clear
10:55 PM 53.1 °F 49.3 °F 87% 30.14 in 10.0 mi Calm Calm - N/A   Clear
11:15 PM 53.1 °F 49.3 °F 87% 30.14 in 10.0 mi Calm Calm - N/A   Clear
11:35 PM 52.9 °F 48.9 °F 86% 30.14 in 10.0 mi Calm Calm - N/A   Clear
11:55 PM 52.0 °F 48.4 °F 88% 30.14 in 10.0 mi Calm Calm - N/A   Clear